sat.trackr.live / text

‹ back to catalog

STARLINK-33857

NORAD 64195 · 2025-113AB

PAYLOAD ACTIVE UNKNOWN

§ Identity

Operator
Country
US
Launch date
2025-05-28
Launch site
AFETR
Launch vehicle
Mass (kg)
RCS (m²)

Purposes: comms

External: N2YO · Heavens-Above · Gunter

§ Orbital elements

Epoch: 2026-05-25T01:57:40.880160Z

Period
94.11 min
Inclination
53.1576°
Eccentricity
0.0001162
Mean motion
15.30190829 rev/d
Perigee alt
474.4 km
Apogee alt
476.0 km
Semi-major
6,853.4 km
B*
6.5699e-4
RAAN
96.1129°
Arg perigee
89.4062°
Mean anomaly
270.7072°
Rev number
5,672

§ Raw data

STARLINK-338571 64195U 25113AB  26145.08172315  .00019144  00000+0  65699-3 0  99982 64195  53.1576  96.1129 0001162  89.4062 270.7072 15.30190829 56724

JSON: /api/v1/satellites/64195 · /tle

For live sub-satellite position, see the globe view (requires WebGL).

§ Visibility from observer

Set your observer location to see the next 7 days of passes ≥ 10°. The values pass through the URL so the page stays shareable.

No JS? Fill the form by hand. The geolocation button needs JavaScript.